Regional Weather Roundup
Issued by NWS

Home | Current Version | Previous Version | Text Only | Print | Product List | Glossary Off
Versions: 1 2 3 4 5 6 7 8 9 10 11 12 13 14 15 16 17 18 19 20 21 22 23 24 25 26 27 28 29 30 31 32 33 34 35 36 37 38 39 40 41 42 43 44 45 46 47 48 49 50

000
ASUS43 KMKX 092311
RWRWI

WISCONSIN REGIONAL WEATHER ROUNDUP
NATIONAL WEATHER SERVICE MILWAUKEE/SULLIVAN WI
600 PM CDT WED JUL 09 2014

NOTE: "FAIR" INDICATES FEW OR NO CLOUDS BELOW 12,000 FEET WITH NO
SIGNIFICANT WEATHER AND/OR OBSTRUCTIONS TO VISIBILITY.

WIZ001-002-006>008-014>016-023>028-100000-
NORTHWEST WISCONSIN

CITY           SKY/WX    TMP DP  RH WIND       PRES   REMARKS
SUPERIOR ARPT  MOSUNNY   74  50  43 E7        29.98R
ASHLAND        SUNNY     71  50  47 CALM      30.01S
HAYWARD        MOSUNNY   72  49  44 N5        30.01S
SIREN          CLOUDY    73  52  46 SW5       30.00S
RICE LAKE      MOSUNNY   73  53  50 NW3       30.02R
LADYSMITH      MOSUNNY   71  51  50 N5        30.03S
EAU CLAIRE     CLOUDY    75  53  46 CALM      29.99S
MENOMONIE      PTCLDY    75  52  44 W7        30.00S
NEW RICHMOND   SUNNY     74  52  45 W6        30.00S
OSCEOLA        SUNNY     76  52  43 W6        30.01S
$$

WIZ003>005-009-010-017-018-100000-
NORTH CENTRAL WISCONSIN

CITY           SKY/WX    TMP DP  RH WIND       PRES   REMARKS
WOODRUFF       MOSUNNY   69  47  45 N7G17     30.02S
RHINELANDER    SUNNY     65  44  46 N7        30.03R
EAGLE RIVER    PTSUNNY   65  45  47 N6        30.02S
LAND O LAKES   MOSUNNY   65  45  47 NW8       30.03S
PHILLIPS       MOSUNNY   67  50  54 N3        30.02S
TOMAHAWK       SUNNY     67  47  49 CALM      30.03S
MEDFORD        MOSUNNY   68  50  52 N5        30.02S
MERRILL        SUNNY     68  49  50 NW7       30.01F
$$

WIZ029-030-035-036-043>047-100000-
CENTRAL WISCONSIN

CITY           SKY/WX    TMP DP  RH WIND       PRES   REMARKS
WAUSAU         MOSUNNY   70  48  45 N7        30.00S
MOSINEE        MOSUNNY   68  50  52 N8        30.03R
MARSHFIELD     SUNNY     70  50  49 N8        30.01S
STEVENS POINT  CLOUDY    67  49  52 NW6       30.02S
WAUPACA        MOSUNNY   73  48  40 N7        30.01S
WAUTOMA        MOSUNNY   72  50  45 N9G18     30.01S
WISC RAPIDS    CLOUDY    74  49  41 N14       30.02S
CAMP DOUGLAS   MOSUNNY   72  54  53 N7        30.01S
$$

WIZ011>013-019>022-031-037>040-048>050-100000-
NORTHEAST WISCONSIN

CITY           SKY/WX    TMP DP  RH WIND       PRES   REMARKS
ANTIGO         PTSUNNY   66  49  55 N8        30.02S
STURGEON BAY   CLOUDY    64  52  63 NW3       30.00S
GREEN BAY      PTSUNNY   70  50  49 N10       29.99R
MANITOWOC      MOSUNNY   64  54  69 S8        30.00S
APPLETON       MOSUNNY   70  46  43 NW12      30.00S
CLINTONVILLE   MOSUNNY   70  45  40 NW9G16    30.00S
OSHKOSH        CLOUDY    70  51  51 NW10      30.00R
$$

WIZ032>034-041-042-053>061-100000-
SOUTHWEST WISCONSIN

CITY           SKY/WX    TMP DP  RH WIND       PRES   REMARKS
LA CROSSE      SUNNY     78  52  40 N3        30.00S
SPARTA         SUNNY     74  48  39 NW6       30.02S
VIROQUA        FAIR      73  51  45 N5        30.03S
BOSCOBEL       SUNNY     78  53  41 NW7       30.01S
PRAIRIE DU CHI SUNNY     75  53  45 W6        30.00F
PLATTEVILLE    FAIR      75  53  45 N6        30.03S
$$

WIZ056-057-062-063-064-067-068-100000-
SOUTH CENTRAL WISCONSIN

CITY           SKY/WX    TMP DP  RH WIND       PRES   REMARKS
BARABOO/DELLS  MOSUNNY   74  47  38 NW8       30.02S
LONE ROCK      SUNNY     78  54  43 NW8       30.01S
WATERTOWN      SUNNY     72  51  47 NW9       30.00S
MADISON        MOSUNNY   74  50  42 N7        30.01S
MIDDLETON      FAIR      74  48  39 NW8       30.02S
MONROE         SUNNY     73  50  43 NW13      30.02R
JANESVILLE     MOSUNNY   75  46  35 N15       30.00S
$$

WIZ051-052-058>065-066-070>072-100000-
SOUTHEAST WISCONSIN

CITY           SKY/WX    TMP DP  RH WIND       PRES   REMARKS
MILWAUKEE      MOSUNNY   67  58  72 SE8       30.00R
WAUKESHA       MOSUNNY   70  48  46 NW12      30.01R
MILWAUKEE/TIMM NOT AVBL
RACINE         SUNNY     67  58  72 VRB7      30.02R
BURLINGTON     SUNNY     71  49  45 N9G17     30.00S
KENOSHA        MOSUNNY   69  60  73 E9        30.00R
FOND DU LAC    CLOUDY    71  50  47 N10       30.00R
SHEBOYGAN      CLOUDY    70  50  49 N6        29.99S
WEST BEND      CLOUDY    70  46  43 NW8       30.00S
JUNEAU         PTSUNNY   71  33  24 NW7       30.02S
$$

LSZ147-162-100000-
LAKE SUPERIOR

STATION/POSITION TIME  TEMP    WIND        PRES    WAVE
                       AIR SEA DIR/SP/G            HT/PER
                 (UTC) (F)     (DEG/KT/KT) (MB)    (FT/S)
W MID LAKE BUOY  2250   45 38  210/ 10/ 10 1016.0R   0
DEVILS ISLAND    2100   64     210/  8/  9 1015.7R
PORT WING        2200   73      30/  2/  3 1015.6
SAXON HARBOR     2200           70/  2/  3 1016.6R
$$

LMZ867-665-643>646-100000-
LAKE MICHIGAN

STATION/POSITION TIME  TEMP    WIND        PRES    WAVE
                       AIR SEA DIR/SP/G            HT/PER
                 (UTC) (F)     (DEG/KT/KT) (MB)    (FT/S)
N MID LAKE BUOY  2250   58 56  240/  8/  8 1015.1R   0
NORTHPORT PIER   2200   64     320/  5/  6 1015.2R
KEWAUNEE LAKESHO 2200   56     140/  3/  5 1016.4R
SHEBOYGAN LAKESH 2300   60     180/ 13/ 13 1015.9R
PORT WASHINGTON  2200   67     190/  3/  5 1016.3R
ATWATER BUOY     2200   62     150/  6     1016.7R
MILWAUKEE LAKESH 2200   62     160/  1/  2   N/A
S MID LAKE BUOY  2250   60 58   CALM  /  2 1016.0R   0
KENOSHA   LAKESH 2200   64     140/  8/ 11   N/A
$$

TC  - TEMPERATURE IN CELSIUS
VSB - VISIBILITY IN STATUTE MILES
WCI - WIND CHILL INDEX
HX  - HEAT INDEX



USA.gov is the U.S. government's official web portal to all federal, state and local government web resources and services.